Location: Bühlhof
(48.7849°N, 8.6361°E)
Time: 15:03:49
(UTC+00:00)

SJ 16-02 - Pass Details

Date: 19 January 2026
Orbit: 582 x 594 km, 75.0° (Epoch: 16 February)

Event Time Altitude Azimuth Distance (km) Brightness Sun altitude
Rises 16:51:47 0° 323° (NW) 2,828 5.0 -8.1°
Reaches altitude 10° 16:54:44 10° 301° (WNW) 1,924 4.4 -8.6°
Maximum altitude 16:57:18 16° 264° (W) 1,580 4.7 -8.9°
Drops below altitude 10° 16:59:52 10° 227° (SW) 1,919 5.1 -9.3°
Sets 17:02:49 0° 205° (SSW) 2,816 5.5 -9.8°
